Northeast Philadelphia, PA

4:44 AM EDT on October 21, 2019 (GMT -0400)
Northeast Philadelphia

Weather History for KPNE - August, 2019

Change the Weather History Date:

Wednesday, August 7, 2019

  Actual Average Record
Temperature  
Mean Temperature 81 °F -  
Max Temperature 93 °F 83 °F 99 °F (2001)
Min Temperature 71 °F 65 °F 55 °F (1997)
Cooling Degree Days 16    
Growing Degree Days 31 (Base 50)    
Moisture  
Dew Point 69 °F    
Average Humidity 79    
Maximum Humidity 87    
Minimum Humidity 45    
Precipitation  
Precipitation 1.62 in - - ()
Sea Level Pressure  
Sea Level Pressure 29.80 in    
Wind  
Wind Speed 6 mph (ESE)    
Max Wind Speed 24 mph    
Max Gust Speed 32 mph    
Visibility 8 miles    
Events Fog , Rain , Thunderstorm    
Averages and records for this station are not official NWS values.
T = Trace of Precipitation, MM = Missing Value Source: NWS Daily Summary

Daily Weather History Graph

Daily Weather History Graph

Search for Another Location

Airport or City:

Astronomy

Aug. 07, 2019 Rise Set
Actual Time 6:03 AM EDT 8:07 PM EDT
Civil Twilight 5:33 AM EDT 8:37 PM EDT
Nautical Twilight 4:57 AM EDT 9:13 PM EDT
Astronomical Twilight 4:17 AM EDT 9:52 PM EDT
Moon 1:33 PM EDT (8/7) No Moon Set
Length of Visible Light 15h 03m
Length of Day
14h 03m
Waxing Crescent, 49% of the Moon is Illuminated
Aug 7
Waxing Crescent
Aug 7
First Quarter
Aug 15
Full
Aug 23
Last Quarter
Aug 30
New

Hourly Weather History & Observations

Time (EDT) Temp. Heat Index Dew Point Humidity Pressure Visibility Wind Dir Wind Speed Gust Speed Precip Events Conditions
12:54 AM 75.9 °F - 70.0 °F 82% 29.84 in 10.0 mi Calm Calm - N/A   Clear
1:54 AM 75.9 °F - 70.0 °F 82% 29.84 in 10.0 mi Calm Calm - N/A   Mostly Cloudy
2:54 AM 75.9 °F - 71.1 °F 85% 29.83 in 10.0 mi Calm Calm - N/A   Clear
3:54 AM 75.0 °F - 70.0 °F 84% 29.83 in 10.0 mi SE 3.5 mph - N/A   Clear
4:41 AM 75.9 °F - 71.1 °F 85% 29.84 in 10.0 mi ESE 3.5 mph - N/A   Mostly Cloudy
4:54 AM 75.9 °F - 71.1 °F 85% 29.84 in 9.0 mi NE 4.6 mph - N/A   Overcast
5:46 AM 75.9 °F - 71.1 °F 85% 29.84 in 10.0 mi ENE 3.5 mph - N/A   Overcast
5:54 AM 75.9 °F - 71.1 °F 85% 29.84 in 9.0 mi NE 4.6 mph - N/A   Overcast
6:54 AM 75.9 °F - 71.1 °F 85% 29.85 in 8.0 mi ESE 4.6 mph - N/A   Overcast
7:12 AM 75.9 °F - 71.1 °F 85% 29.85 in 9.0 mi SE 4.6 mph - N/A   Overcast
7:54 AM 78.1 °F - 72.0 °F 81% 29.83 in 10.0 mi Variable 3.5 mph - N/A   Overcast
8:01 AM 78.1 °F - 72.0 °F 81% 29.84 in 10.0 mi Variable 3.5 mph - N/A   Mostly Cloudy
8:28 AM 80.1 °F 83.8 °F 72.0 °F 76% 29.84 in 10.0 mi SSW 5.8 mph - N/A   Mostly Cloudy
8:47 AM 80.1 °F 83.8 °F 72.0 °F 76% 29.84 in 10.0 mi South 4.6 mph - N/A   Mostly Cloudy
8:54 AM 81.0 °F 85.8 °F 73.0 °F 77% 29.83 in 10.0 mi Variable 3.5 mph - N/A   Overcast
9:09 AM 82.0 °F 87.4 °F 73.0 °F 74% 29.84 in 10.0 mi Variable 4.6 mph - N/A   Overcast
9:54 AM 84.0 °F 90.2 °F 73.0 °F 69% 29.84 in 10.0 mi Variable 4.6 mph - N/A   Scattered Clouds
10:13 AM 84.0 °F 89.6 °F 72.0 °F 67% 29.84 in 10.0 mi SSW 6.9 mph - N/A   Mostly Cloudy
10:32 AM 84.9 °F 90.7 °F 72.0 °F 65% 29.84 in 10.0 mi SSW 6.9 mph - N/A   Scattered Clouds
10:54 AM 84.9 °F 90.7 °F 72.0 °F 65% 29.83 in 10.0 mi Variable 5.8 mph - N/A   Partly Cloudy
11:54 AM 88.0 °F 93.8 °F 71.1 °F 57% 29.82 in 10.0 mi Variable 6.9 mph - N/A   Clear
12:54 PM 90.0 °F 96.4 °F 71.1 °F 54% 29.80 in 10.0 mi SSE 6.9 mph - N/A   Scattered Clouds
1:28 PM 91.9 °F 97.4 °F 70.0 °F 48% 29.78 in 10.0 mi SSW 15.0 mph 20.7 mph N/A Thunderstorm Partly Cloudy
1:54 PM 91.0 °F 95.6 °F 69.1 °F 48% 29.75 in 10.0 mi South 8.1 mph 18.4 mph N/A   Partly Cloudy
2:54 PM 91.9 °F 95.9 °F 68.0 °F 45% 29.73 in 10.0 mi Variable 6.9 mph 18.4 mph N/A   Mostly Cloudy
3:20 PM 90.0 °F 93.6 °F 68.0 °F 48% 29.71 in 10.0 mi WSW 8.1 mph - N/A Thunderstorm Scattered Clouds
3:36 PM 86.0 °F 90.7 °F 70.0 °F 59% 29.71 in 10.0 mi WNW 16.1 mph 24.2 mph 0.00 in Rain , Thunderstorm Light Thunderstorms and Rain
3:54 PM 77.0 °F - 66.9 °F 71% 29.73 in 8.0 mi WNW 16.1 mph 31.1 mph 0.01 in Rain , Thunderstorm Light Thunderstorms and Rain
4:12 PM 75.9 °F - 66.9 °F 74% 29.72 in 9.0 mi NNE 18.4 mph 24.2 mph 0.00 in Rain , Thunderstorm Light Thunderstorms and Rain
4:19 PM 75.0 °F - 66.9 °F 76% 29.73 in 0.8 mi WNW 24.2 mph 32.2 mph 0.03 in Rain , Thunderstorm Heavy Thunderstorms and Rain
4:36 PM 73.0 °F - 69.1 °F 87% 29.76 in 0.2 mi West 9.2 mph - 0.65 in Fog , Rain , Thunderstorm Heavy Thunderstorms and Rain
4:45 PM 73.9 °F - 68.0 °F 82% 29.74 in 2.0 mi North - - 0.79 in Rain , Thunderstorm Light Thunderstorms and Rain
4:48 PM 75.2 °F - 68.0 °F 78% 29.75 in 9.0 mi NE 9.2 mph - 0.79 in Thunderstorm Thunderstorm
4:54 PM 75.0 °F - 69.1 °F 82% 29.77 in 10.0 mi ESE 19.6 mph - 0.79 in Thunderstorm Thunderstorm
5:04 PM 75.0 °F - 66.9 °F 76% 29.75 in 10.0 mi NNW 17.3 mph 24.2 mph N/A Thunderstorm Overcast
5:25 PM 73.9 °F - 68.0 °F 82% 29.78 in 3.0 mi NW 15.0 mph 21.9 mph 0.01 in Rain , Thunderstorm Heavy Thunderstorms and Rain
5:29 PM 73.0 °F - 69.1 °F 87% 29.77 in 1.8 mi NNW 23.0 mph - 0.06 in Rain , Thunderstorm Heavy Thunderstorms and Rain
5:35 PM 73.0 °F - 69.1 °F 87% 29.77 in 2.0 mi NNW 18.4 mph - 0.08 in Rain , Thunderstorm Thunderstorms and Rain
5:44 PM 73.0 °F - 69.1 °F 87% 29.79 in 5.0 mi North 12.7 mph - 0.08 in Rain , Thunderstorm Light Thunderstorms and Rain
5:54 PM 73.0 °F - 69.1 °F 87% 29.81 in 1.2 mi WSW 5.8 mph 18.4 mph 0.14 in Rain , Thunderstorm Heavy Thunderstorms and Rain
6:02 PM 72.0 °F - 68.0 °F 87% 29.80 in 0.5 mi NNE 8.1 mph - 0.26 in Fog , Rain , Thunderstorm Heavy Thunderstorms and Rain
6:08 PM 72.0 °F - 68.0 °F 87% 29.81 in 1.0 mi ENE 8.1 mph - 0.34 in Rain , Thunderstorm Heavy Thunderstorms and Rain
6:18 PM 72.0 °F - 68.0 °F 87% 29.81 in 2.5 mi NE 6.9 mph - 0.38 in Rain , Thunderstorm Thunderstorms and Rain
6:37 PM 72.0 °F - 68.0 °F 87% 29.81 in 4.0 mi East 6.9 mph - 0.43 in Rain , Thunderstorm Light Rain
6:54 PM 73.0 °F - 68.0 °F 84% 29.82 in 5.0 mi ESE 6.9 mph - 0.46 in Rain , Thunderstorm Light Thunderstorms and Rain
7:00 PM 73.0 °F - 68.0 °F 84% 29.82 in 5.0 mi ESE 6.9 mph - 0.01 in Rain Light Rain
7:07 PM 73.0 °F - 68.0 °F 84% 29.82 in 5.0 mi ESE 8.1 mph - 0.02 in Rain , Thunderstorm Light Rain
7:35 PM 72.0 °F - 68.0 °F 87% 29.84 in 6.0 mi ESE 5.8 mph - 0.06 in Rain Rain
7:45 PM 72.0 °F - 68.0 °F 87% 29.84 in 5.0 mi ESE 5.8 mph - 0.09 in Rain , Thunderstorm Thunderstorms and Rain
7:54 PM 72.0 °F - 68.0 °F 87% 29.82 in 6.0 mi East 10.4 mph - 0.10 in Rain , Thunderstorm Thunderstorms and Rain
8:06 PM 72.0 °F - 68.0 °F 87% 29.82 in 4.0 mi SE 6.9 mph - 0.05 in Rain Heavy Rain
8:25 PM 72.0 °F - 68.0 °F 87% 29.82 in 5.0 mi SSE 3.5 mph - 0.11 in Rain , Thunderstorm Rain
8:37 PM 72.0 °F - 68.0 °F 87% 29.80 in 9.0 mi East 9.2 mph - 0.12 in Rain Light Rain
8:47 PM 72.0 °F - 68.0 °F 87% 29.82 in 9.0 mi South 3.5 mph - 0.12 in   Mostly Cloudy
8:54 PM 72.0 °F - 68.0 °F 87% 29.81 in 8.0 mi Calm Calm - 0.12 in   Mostly Cloudy
9:46 PM 71.1 °F - 66.9 °F 87% 29.80 in 8.0 mi Calm Calm - N/A   Scattered Clouds
9:54 PM 71.1 °F - 66.9 °F 87% 29.79 in 8.0 mi Calm Calm - N/A   Partly Cloudy
10:24 PM 71.1 °F - 66.9 °F 87% 29.79 in 8.0 mi Calm Calm - N/A   Mostly Cloudy
10:54 PM 71.1 °F - 66.9 °F 87% 29.79 in 10.0 mi Calm Calm - N/A   Mostly Cloudy
11:01 PM 71.1 °F - 66.9 °F 87% 29.80 in 10.0 mi SW 3.5 mph - N/A   Scattered Clouds
11:37 PM 71.1 °F - 66.9 °F 87% 29.80 in 9.0 mi Calm Calm - N/A   Mostly Cloudy
11:54 PM 72.0 °F - 68.0 °F 87% 29.80 in 8.0 mi WNW 5.8 mph - N/A   Mostly Cloudy